Weather in Yelets

Russia / Belgorod Oblast     50°41′50″N   38°03′10″E
temp.,
°C
wind,
m/s
gust,
m/s
humid.,
%
clouds,
%
prec.,
mm/h
press.,
hPa
HPBL,
m
8 may, sat
sat800:00+9se4107022 0.0 1015187
03:00+9sse61573100 0.0 1014402
06:00+10sse71675100 0.0 1012525
09:00+12sse71379100 0.1 1011598
12:00+13s71475100 0.1 10091004
15:00+12s61592100 3.0 1008855
18:00+13sw71389100 1.3 1006673
21:00+11w51192100 1.4 1007583
9 may, sun
sun900:00+6w71094100 3.4 1011650
03:00+5wnw61191100 4.9 1012893
06:00+4wnw71387100 0.0 1013864
09:00+6nw81178100 0.1 1015981
12:00+7nw81168100 0.0 10161309
15:00+9nw8116397 0.1 10181652
18:00+9nnw6106799 0.1 10191366
21:00+5nnw5127211 0.1 1022434
10 may, mon
mon1000:00+4nw412864 0.0 1023293
03:00+4nw614825 0.0 1023332
06:00+5nnw514772 0.0 1024415
09:00+10n8146016 0.0 10241445
12:00+12n11145091 0.0 10221662
15:00+13n101452100 0.0 10211726
18:00+11n91558100 0.0 10211225
21:00+10nne91762100 0.1 1020934
11 may, tue
tue1100:00+10nne91877100 0.4 1019882
03:00+9nne91685100 0.5 1019624
06:00+9nne81891100 0.1 1018564
09:00+9ne81595100 3.6 1019647
12:00+12e91174100 0.2 10201272
15:00+13e8116086 0.2 10221719
18:00+11e61073100 0.0 1023817
21:00+8ene4108676 0.0 1023277
12 may, wed
wed1200:00+7ene499098 0.0 1022170
03:00+7e4109581 0.0 1021234
06:00+7ese389295 0.0 1021232
09:00+13ese59705 0.0 1021897
12:00+16ese7105863 0.2 10201861
15:00+15ese61067100 0.4 10201208
18:00+15ese51067100 0.1 1019523
21:00+12ese4128261 0.2 1018267